18:58 MESZ | 05.05.2026 Profi-Wetter| Mobile Seite| Kontakt| Impressum| Datenschutz
Social

Wetterstation Neuburg/Donau (Flugplatz)

Messwerte
  Temperatur Wetter Niederschlag Luftdruck Wind
Di, 18:20 Uhr 16° - 1006 hPa 13 km/h NW
Di, 18:00 Uhr 17° - 1006 hPa 7 km/h N
Di, 17:00 Uhr 16° - 1006 hPa 14 km/h W

Böen 50 km/h
Di, 16:00 Uhr 22° - 1005 hPa 18 km/h W
Di, 15:00 Uhr 22° - 1005 hPa 7 km/h N
Di, 14:00 Uhr 23° - 1005 hPa 4 km/h SW
Di, 13:00 Uhr 22° - 1005 hPa 7 km/h N
Di, 12:00 Uhr 21° - 1006 hPa 4 km/h N
Di, 11:00 Uhr 20° - 1007 hPa 7 km/h O
Di, 10:00 Uhr 18° - 1008 hPa 4 km/h SO
Di, 09:00 Uhr 16° - 1008 hPa 4 km/h NW
Di, 08:00 Uhr 14° 0.9 mm 1009 hPa 11 km/h W
Di, 07:00 Uhr 11° - 1010 hPa 7 km/h W
Di, 06:00 Uhr 10° - 1010 hPa 7 km/h SW
Di, 05:00 Uhr 12° - 1010 hPa 7 km/h SW
Di, 04:00 Uhr 13° - 1010 hPa 4 km/h SW
Di, 03:00 Uhr 15° - 1010 hPa 4 km/h NW
Di, 02:00 Uhr 15° - 1010 hPa 7 km/h NW
Di, 01:00 Uhr 15° - 1011 hPa 7 km/h O
Di, 00:00 Uhr 16° - 1012 hPa 11 km/h SW

Alle Zeitangaben MESZ